Flag for Russia Weather past 2 weeks in Murmansk, Russia

34 °F

Snow flurries. Passing clouds.

Feels Like: 27 °F
Forecast: 34 / 36 °F
Wind: 8 mph from South

Location: Murmansk Airport

Current Time: Nov 26, 2015 at 1:48:57 AM

Latest Report: Nov 26, 2015 at 1:00 AM

Visibility: 6 mi

Pressure: 29.27 "Hg

Humidity: 87%

Dew point: 30 °F

Location of MurmanskLocation

Historic Weather in Murmansk — Graph


Murmansk temperature yesterday

Maximum temperature yesterday: 34 °F (at 5:00 PM)
Minimum temperature yesterday: 30 °F (at 12:30 AM)
Average temperature yesterday: 32 °F

Past Weeks' High & Low Weather Summary

High34 °F (Nov 25, 5:00 PM)93% (Nov 13, 5:00 PM)30.01 "Hg (Nov 13, 5:00 PM)
Low-4 °F (Nov 12, 6:00 AM)69% (Nov 14, 7:30 PM)29.27 "Hg (Nov 26, 12:00 AM)
Average22 °F82%29.60 "Hg
* Reported Midnight between Nov 10 and Nov 11 — Nov 26 12:30 AM, Murmansk, Weather by CustomWeather, © 2015

Note: Actual official high and low records may vary slightly from our data, if they occured in-between our weather recording intervals... More about our weather records


Murmansk weather history for previous 24 hours

Time TempWeatherWind HumidityBarometerVisibility
12:30 AM
Thu, Nov 26
34 °FSnow flurries. Passing clouds.6 mph87%29.27 "Hg6 mi
12:00 AM34 °FSnow flurries. Passing clouds.6 mph87%29.27 "Hg6 mi
11:30 PM
Wed, Nov 25
34 °FSnow flurries. Passing clouds.3 mph87%29.30 "HgN/A
11:00 PM34 °FSnow flurries. Passing clouds.6 mph87%29.30 "HgN/A
10:30 PM34 °FSnow flurries. Passing clouds.6 mph87%29.30 "Hg6 mi
10:00 PM34 °FSnow flurries. Passing clouds.6 mph87%29.30 "Hg6 mi
9:30 PM34 °FSnow flurries. Passing clouds.6 mph87%29.30 "Hg6 mi
9:00 PM34 °FSnow flurries. Passing clouds.6 mph87%29.30 "HgN/A
8:30 PM34 °FSnow flurries. Passing clouds.6 mph81%29.30 "Hg6 mi
8:00 PM34 °FPassing clouds.6 mph81%29.33 "HgN/A
7:30 PM34 °FPassing clouds.6 mph81%29.33 "HgN/A
7:00 PM34 °FPassing clouds.6 mph81%29.33 "HgN/A
6:30 PM34 °FPassing clouds.6 mph81%29.33 "HgN/A
6:00 PM32 °FPassing clouds.6 mph87%29.33 "HgN/A
5:30 PM32 °FPassing clouds.6 mph80%29.33 "HgN/A
5:00 PM34 °FPassing clouds.3 mph81%29.33 "HgN/A
4:30 PM32 °FPassing clouds.3 mph80%29.36 "HgN/A
4:00 PM32 °FPassing clouds.6 mph80%29.36 "HgN/A
3:30 PM30 °FPassing clouds.3 mph86%29.36 "HgN/A
3:00 PM30 °FPassing clouds.3 mph80%29.36 "HgN/A
2:30 PM30 °FPartly sunny.3 mph86%29.36 "HgN/A
2:00 PM30 °FPartly sunny.3 mph86%29.33 "HgN/A
1:30 PM32 °FPartly sunny.3 mph80%29.33 "HgN/A
1:00 PM32 °FPartly sunny.3 mph80%29.33 "HgN/A
12:30 PM32 °FPartly sunny.3 mph80%29.33 "HgN/A
12:00 PM32 °FPassing clouds.3 mph80%29.33 "HgN/A
11:30 AM32 °FPassing clouds.3 mph80%29.33 "HgN/A
11:00 AM32 °FPassing clouds.6 mph80%29.33 "HgN/A
10:30 AM32 °FPassing clouds.3 mph80%29.33 "HgN/A
10:00 AM32 °FPassing clouds.3 mph75%29.33 "HgN/A
9:00 AM30 °FPassing clouds.3 mph80%29.33 "HgN/A
8:30 AM30 °FPassing clouds.3 mph80%29.33 "HgN/A
8:00 AM30 °FPassing clouds.3 mph80%29.33 "HgN/A
7:30 AM30 °FPassing clouds.3 mph80%29.33 "HgN/A
7:00 AM30 °FPassing clouds.6 mph80%29.33 "HgN/A
6:00 AM30 °FSnow flurries. Passing clouds.6 mph86%29.33 "Hg5 mi
5:30 AM30 °FSnow flurries. Passing clouds.6 mph86%29.33 "Hg6 mi
5:00 AM32 °FPassing clouds.3 mph80%29.33 "HgN/A
4:30 AM32 °FPassing clouds.6 mph80%29.36 "HgN/A
4:00 AM32 °FPassing clouds.6 mph75%29.36 "HgN/A
3:30 AM32 °FPassing clouds.6 mph75%29.36 "HgN/A
3:00 AM32 °FPassing clouds.6 mph75%29.36 "HgN/A
2:30 AM32 °FPassing clouds.8 mph75%29.36 "HgN/A
2:00 AM32 °FPassing clouds.6 mph75%29.36 "HgN/A
1:30 AM32 °FSnow flurries. Passing clouds.6 mph80%29.36 "HgN/A
1:00 AM30 °FSnow flurries. Passing clouds.8 mph86%29.36 "Hg6 mi
Weather by CustomWeather, © 2015

See weather overviewHow to use our weather pages